Location: Asheville, NC
(35.6000°N, 82.5500°W)
Time: 03:32:36
(UTC-04:00)

Vanguard 1 Rocket - Pass Details

Date: 12 March 2018
Orbit: 653 x 4224 km, 34.3° (Epoch: 17 June)

Event Time Altitude Azimuth Distance (km) Brightness Sun altitude
Rises 17:36:57 0° 207° (SSW) 3,322 11.0 22.6°
Reaches altitude 10° 17:39:23 10° 194° (SSW) 2,624 10.4 22.1°
Maximum altitude 17:44:33 27° 137° (SE) 2,201 9.3 21.1°
Drops below altitude 10° 17:52:44 10° 85° (E) 4,280 10.3 19.6°
Sets 17:58:01 0° 76° (ENE) 5,946 10.9 18.5°
